Regional Weather Roundup
Issued by NWS

Home | Current Version | Previous Version | Text Only | Print | Product List | Glossary On
Versions: 1 2 3 4 5 6 7 8 9 10 11 12 13 14 15 16 17 18 19 20 21 22 23 24 25 26 27 28 29 30 31 32 33 34 35 36 37 38 39 40 41 42 43 44 45 46 47 48 49 50
000
ASUS43 KDTX 220401
RWRMI
MICHIGAN HOURLY REGIONAL WEATHER ROUNDUP
NATIONAL WEATHER SERVICE DETROIT/PONTIAC MI
1100 PM EST TUE NOV 21 2017

NOTE: "FAIR" INDICATES FEW OR NO CLOUDS BELOW 12,000 FEET WITH NO
SIGNIFICANT WEATHER AND/OR OBSTRUCTION TO VISIBILITY.

MIZ047>049-052>055-059>063-066>070-074>076-081>083-220500-
SOUTHEAST LOWER MICHIGAN

CITY           SKY/WX    TMP DP  RH WIND       PRES   REMARKS
ADRIAN         CLOUDY    35  27  72 NW9       30.03R WCI  28
ALMA           CLOUDY    32  19  59 NW13G18   30.05R WCI  22
ANN ARBOR      CLOUDY    35  28  75 W8        30.00R WCI  29
BAD AXE        CLOUDY    32  20  61 NW13G18   29.99R WCI  22
CARO           CLOUDY    32  23  68 NW12G21   30.00R WCI  23
DETROIT CITY   CLOUDY    37  26  64 NW10      29.99R WCI  30
DETROIT        CLOUDY    37  29  72 NW12      30.00R WCI  29
FLINT          CLOUDY    33  22  63 N16G22    30.01R WCI  23
GROSSE ILE     CLOUDY    37  30  76 NW10      29.98R WCI  30
HILLSDALE      CLOUDY    32  27  80 NW14G20   30.01R WCI  22
HOWELL         CLOUDY    33  24  71 NW12G18   30.00R WCI  24

CITY           SKY/WX    TMP DP  RH WIND       PRES   REMARKS
JACKSON        CLOUDY    34  24  67 NW9       30.02R WCI  27
LAMBERTVILLE   CLOUDY    37  29  74 NW7       30.02R WCI  31
LANSING        CLOUDY    33  23  66 NW9       30.04R WCI  25
LAPEER         CLOUDY    33  23  66 NW9G21    29.99R WCI  25
MASON          CLOUDY    34  24  66 NW9       30.02R WCI  27
MONROE         CLOUDY    37  29  73 NW8       30.00R WCI  31
MT. CLEMENS    CLOUDY    35  27  73 NW12      29.97R WCI  26
PONTIAC        CLOUDY    33  23  66 NW13      29.98R WCI  24
PORT HOPE        N/A     33  23  66 NW16G25   29.97R WCI  23
PORT HURON     CLOUDY    32  25  74 NW6       29.98R WCI  26
TRI CITIES     CLOUDY    32  21  64 N15G24    30.04R WCI  22
MIDLAND        CLOUDY    32  21  64 NW10G21   30.03R WCI  24
TROY           CLOUDY    37  27  68 NW9G18    30.01R WCI  30
SAGINAW HB     CLOUDY    32  21  64 NW20      30.02R WCI  20
$$
MIZ043>046-050>051-056>058-064>065-071>073-077>080-220500-
SOUTHWEST LOWER MICHIGAN

CITY           SKY/WX    TMP DP  RH WIND       PRES   REMARKS
BATTLE CREEK   CLOUDY    33  22  63 NW12      30.06R WCI  24
BENTON HARBOR  CLOUDY    35  21  56 NW10G17   30.11R WCI  27
BIG RAPIDS     CLOUDY    30  20  66 N9        30.05R WCI  21
COLDWATER      CLOUDY    33  24  69 NW9       30.05R WCI  26
FREMONT        CLOUDY    31  22  70 NW13      30.09R WCI  21
HOLLAND        CLOUDY    34  21  59 N8        30.10R WCI  27
GRAND RAPIDS   FLURRIES  32  22  66 NW16      30.07R WCI  21
IONIA          CLOUDY    32  21  64 NW12      30.05R WCI  23
KALAMAZOO      CLOUDY    33  20  58 NW14      30.07R WCI  23
LUDINGTON      CLOUDY    28  18  64 NW9G17    30.12R WCI  20
MARSHALL       CLOUDY    32  22  66 NW8       30.04R WCI  25
MOUNT PLEASANT CLOUDY    32  19  57 NW8G18    30.04R WCI  25
MUSKEGON       CLOUDY    33  20  58 N12       30.11R WCI  24
SOUTH HAVEN    CLOUDY    36  23  60 N10G18    30.10R WCI  28
$$
MIZ016>042-220500-
NORTHERN LOWER MICHIGAN

CITY           SKY/WX    TMP DP  RH WIND       PRES   REMARKS
ALPENA         CLOUDY    29  17  61 NW10      30.00R WCI  20
BEAVER ISLAND  CLOUDY    28  21  72 NW12G21   30.06R WCI  18
BELLAIRE       LGT SNOW  27  26  93 N8        30.07S WCI  19
CADILLAC       CLOUDY    26  16  66 NW16G22   30.03R WCI  13
CHARLEVOIX     CLOUDY    30  16  55 NW16G24   30.08S WCI  19
FRANKFORT      CLOUDY    30  18  61 NW12      30.11R WCI  20
GAYLORD        FLURRIES  24  19  81 NW6       30.00R WCI  17
GRAYLING       LGT SNOW  26  21  80 NW10G22   30.02R WCI  16
HARBOR SPRINGS FLURRIES  28  19  71 NW9       30.04R WCI  19
HOUGHTON LAKE  FLURRIES  26  19  74 NW14      30.02R WCI  14
MANISTEE       FLURRIES  28  18  66 NW14      30.11R WCI  17
OSCODA         CLOUDY    30  16  56 NW18G28   29.99R WCI  18
PELLSTON       LGT SNOW  26  23  88 NW9       30.04R VSB 3/4 WCI  17
ROGERS CITY    CLOUDY    29  17  60 NW12G25   30.01R WCI  19
TRAVERSE CITY  CLOUDY    29  16  58 W12       30.08R WCI  19
$$
MIZ007>008-015-220500-
EASTERN UPPER MICHIGAN

CITY           SKY/WX    TMP DP  RH WIND       PRES   REMARKS
KINROSS        FLURRIES  24  16  71 NE12      30.01R WCI  13
MACKINAC ISLAN CLOUDY    28  17  65 NW6       30.02S WCI  21
NEWBERRY       CLOUDY    23  19  84 NW10      30.02R WCI  13
S. S. MARIE    CLOUDY    23  11  60 NE10      30.01R WCI  12
MUNISING         N/A     28  23  81 NW10      30.08R WCI  19
$$
MIZ004>006-011>014-085-220500-
CENTRAL UPPER MICHIGAN

CITY           SKY/WX    TMP DP  RH WIND       PRES   REMARKS
MANISTIQUE     CLOUDY    23  18  81 W8        30.07R WCI  13
ESCANABA       FLURRIES  23  17  78 W12       30.12  WCI  12
MENOMINEE      CLOUDY    25  13  60 NW8       30.17R WCI  16
SAWYER-GWINN   FLURRIES  21  17  83 NW10      30.08R WCI  10
$$
MIZ001>003-009>011-084-220500-
WESTERN UPPER MICHIGAN

CITY           SKY/WX    TMP DP  RH WIND       PRES   REMARKS
IRON MOUNTAIN  LGT SNOW  22  13  68 NW16G22   30.10R WCI   8
HOUGHTON       CLOUDY    23  11  60 NW15      30.09R WCI  10
COPPER HARBOR    N/A     27  19  72 N21G28    30.09R WCI  13
IRONWOOD       FLURRIES  20  13  74 NW13      30.17R WCI   7
$$

ABBREVIATIONS USED IN REMARKS
   TC - TEMPERATURE IN CELSIUS
  WCI - WIND CHILL INDEX
   HX - HEAT INDEX
  VSB - VISIBILITY





USA.gov is the U.S. government's official web portal to all federal, state and local government web resources and services.